Weather History for KCQT - December, 2012

Change the Weather History Date:

Tuesday, December 18, 2012

  Actual Average Record
Temperature  
Mean Temperature 58 °F 57 °F  
Max Temperature 63 °F 67 °F 86 °F (1917)
Min Temperature 53 °F 47 °F 35 °F (1885)
Degree Days  
Heating Degree Days 8 8  
Month to date heating degree days 99 133  
Since 1 July heating degree days 177 264  
Cooling Degree Days 0 0  
Month to date cooling degree days 0 0  
Year to date cooling degree days 1315 1240  
Growing Degree Days 8 (Base 50)    
Moisture  
Dew Point 51 °F    
Average Humidity 61    
Maximum Humidity 93    
Minimum Humidity 28    
Precipitation  
Precipitation 0.43 in 0.08 in 2.18 in (1938)
Month to date precipitation 0.92 1.14  
Year to date precipitation 6.91 13.74  
Since 1 July precipitation 1.98 3.13  
Sea Level Pressure  
Sea Level Pressure 29.91 in    
Wind  
Wind Speed 4 mph (WNW)    
Max Wind Speed 10 mph    
Max Gust Speed 23 mph    
Visibility 6 miles    
Events Rain    
T = Trace of Precipitation, MM = Missing Value Source: NWS Daily Summary

Daily Weather History Graph

Daily Weather History Graph

Search for Another Location

Airport or City:

Trip Planner

Search our weather history database for the weather conditions in past years. The results will help you decide how hot, cold, wet, or windy it might be!

Date:

Astronomy

Dec. 18, 2012 Rise Set
Actual Time 6:53 AM PST 4:46 PM PST
Civil Twilight 6:25 AM PST 5:14 PM PST
Nautical Twilight 5:54 AM PST 5:45 PM PST
Astronomical Twilight 5:23 AM PST 6:16 PM PST
Moon 10:50 AM PST (12/18) 11:01 PM PST (12/18)
Length of Visible Light 10h 48m
Length of Day
9h 53m
Waxing Crescent, 36% of the Moon is Illuminated
Dec 18
Waxing Crescent
Dec 19
First Quarter
Dec 28
Full
Jan 4
Last Quarter
Jan 11
New

Hourly Weather History & Observations

Time (PST) Temp. Dew Point Humidity Pressure Visibility Wind Dir Wind Speed Gust Speed Precip Events Conditions
12:00 AM 57.2 °F 53.6 °F 88% 30.00 in 10.0 mi Calm Calm - N/A   Overcast
12:15 AM 57.2 °F 53.6 °F 88% 29.99 in 10.0 mi Calm Calm - N/A   Overcast
12:18 AM 57.2 °F 53.6 °F 88% 29.99 in 10.0 mi Calm Calm - N/A   Overcast
12:47 AM 57.0 °F 53.1 °F 87% 29.99 in 10.0 mi Calm Calm - N/A   Overcast
1:09 AM 57.2 °F 53.6 °F 88% 29.99 in 10.0 mi Calm Calm - N/A   Overcast
1:44 AM 57.2 °F 53.6 °F 88% 29.99 in 10.0 mi Calm Calm - N/A   Overcast
1:47 AM 57.0 °F 53.1 °F 87% 29.99 in 10.0 mi Calm Calm - N/A   Overcast
2:17 AM 57.2 °F 53.6 °F 88% 29.96 in 10.0 mi Calm Calm - N/A   Overcast
2:34 AM 57.2 °F 53.6 °F 88% 29.95 in 10.0 mi Calm Calm - N/A   Overcast
2:37 AM 57.2 °F 53.6 °F 88% 29.95 in 10.0 mi Calm Calm - N/A   Overcast
2:47 AM 57.0 °F 53.1 °F 87% 29.95 in 10.0 mi Variable 3.5 mph - N/A   Overcast
3:14 AM 57.2 °F 53.6 °F 88% 29.94 in 7.0 mi Calm Calm - 0.00 in Rain Light Rain
3:34 AM 55.4 °F 53.6 °F 94% 29.93 in 2.5 mi Calm Calm - 0.01 in Rain Light Rain
3:38 AM 55.4 °F 53.6 °F 94% 29.93 in 2.0 mi Calm Calm - 0.01 in Rain Light Rain
3:41 AM 55.4 °F 53.6 °F 94% 29.93 in 1.8 mi Calm Calm - 0.02 in Rain Rain
3:47 AM 55.9 °F 54.0 °F 93% 29.93 in 1.8 mi Calm Calm - 0.04 in Rain Rain
3:49 AM 55.4 °F 53.6 °F 94% 29.93 in 2.0 mi Calm Calm - 0.00 in Rain Rain
3:52 AM 55.4 °F 53.6 °F 94% 29.93 in 1.8 mi Calm Calm - 0.01 in Rain Rain
4:04 AM 55.4 °F 53.6 °F 94% 29.92 in 2.0 mi Calm Calm - 0.05 in Rain Rain
4:12 AM 55.4 °F 53.6 °F 94% 29.92 in 3.0 mi Calm Calm - 0.06 in Rain Light Rain
4:18 AM 55.4 °F 53.6 °F 94% 29.92 in 2.5 mi Calm Calm - 0.06 in Rain Light Rain
4:25 AM 53.6 °F 53.6 °F 100% 29.91 in 2.0 mi Calm Calm - 0.07 in Rain Light Rain
4:32 AM 55.4 °F 53.6 °F 94% 29.91 in 1.8 mi Calm Calm - 0.08 in Rain Rain
4:38 AM 53.6 °F 53.6 °F 100% 29.91 in 1.8 mi Calm Calm - 0.10 in Rain Rain
4:44 AM 55.4 °F 53.6 °F 94% 29.91 in 2.0 mi Calm Calm - 0.11 in Rain Rain
4:47 AM 55.0 °F 53.1 °F 93% 29.91 in 1.8 mi Calm Calm - 0.12 in Rain Rain
4:57 AM 55.4 °F 53.6 °F 94% 29.90 in 2.0 mi Calm Calm - 0.03 in Rain Rain
5:06 AM 53.6 °F 53.6 °F 100% 29.90 in 1.8 mi East 3.5 mph - 0.05 in Rain Heavy Rain
5:10 AM 55.4 °F 53.6 °F 94% 29.89 in 1.8 mi Calm Calm - 0.07 in Rain Rain
5:18 AM 55.4 °F 53.6 °F 94% 29.89 in 1.8 mi East 3.5 mph - 0.09 in Rain Rain
5:41 AM 55.4 °F 53.6 °F 94% 29.89 in 1.8 mi Calm Calm - 0.14 in Rain Light Rain
5:47 AM 55.0 °F 54.0 °F 96% 29.89 in 1.5 mi Calm Calm - 0.16 in Rain Rain
5:59 AM 55.4 °F 53.6 °F 94% 29.89 in 1.5 mi Variable 3.5 mph - 0.04 in Rain Rain
6:05 AM 55.4 °F 53.6 °F 94% 29.89 in 2.0 mi Calm Calm - 0.05 in Rain Light Rain
6:17 AM 55.4 °F 53.6 °F 94% 29.90 in 1.8 mi Calm Calm - 0.08 in Rain Rain
6:22 AM 55.4 °F 53.6 °F 94% 29.90 in 2.0 mi Calm Calm - 0.09 in Rain Light Rain
6:42 AM 55.4 °F 53.6 °F 94% 29.89 in 3.0 mi Calm Calm - 0.11 in Rain Light Rain
6:47 AM 55.0 °F 54.0 °F 96% 29.89 in 4.0 mi Calm Calm - 0.11 in Rain Light Rain
7:22 AM 55.4 °F 53.6 °F 94% 29.88 in 2.5 mi Variable 3.5 mph - 0.02 in Rain Rain
7:29 AM 55.4 °F 53.6 °F 94% 29.88 in 3.0 mi Calm Calm - 0.03 in Rain Light Rain
7:43 AM 55.4 °F 53.6 °F 94% 29.88 in 10.0 mi Calm Calm - 0.03 in   Overcast
7:47 AM 55.9 °F 54.0 °F 93% 29.88 in 10.0 mi Calm Calm - 0.04 in   Mostly Cloudy
8:47 AM 57.0 °F 55.0 °F 93% 29.90 in 10.0 mi West 3.5 mph - N/A   Overcast
9:28 AM 57.2 °F 53.6 °F 88% 29.89 in 10.0 mi Variable 3.5 mph - N/A   Overcast
9:30 AM 57.2 °F 53.6 °F 88% 29.89 in 10.0 mi West 5.8 mph - N/A   Overcast
9:33 AM 57.2 °F 53.6 °F 88% 29.89 in 10.0 mi West 5.8 mph - N/A   Overcast
9:38 AM 57.2 °F 53.6 °F 88% 29.89 in 10.0 mi West 3.5 mph - N/A   Overcast
9:47 AM 57.9 °F 53.1 °F 84% 29.88 in 10.0 mi Calm Calm - N/A   Overcast
10:17 AM 57.2 °F 53.6 °F 88% 29.88 in 10.0 mi Calm Calm - N/A   Overcast
10:26 AM 59.0 °F 53.6 °F 82% 29.89 in 10.0 mi West 5.8 mph - N/A   Overcast
10:35 AM 59.0 °F 51.8 °F 77% 29.89 in 10.0 mi Variable 4.6 mph - N/A   Overcast
10:47 AM 59.0 °F 51.1 °F 75% 29.88 in 10.0 mi Variable 3.5 mph - N/A   Overcast
10:51 AM 59.0 °F 51.8 °F 77% 29.88 in 10.0 mi Variable 4.6 mph - N/A   Overcast
11:47 AM 59.0 °F 48.9 °F 69% 29.84 in 10.0 mi SW 4.6 mph - N/A   Mostly Cloudy
12:47 PM 61.0 °F 45.0 °F 56% 29.82 in 10.0 mi Variable 6.9 mph 17.3 mph N/A   Clear
1:47 PM 62.1 °F 39.0 °F 43% 29.80 in 10.0 mi Variable 4.6 mph 16.1 mph N/A   Partly Cloudy
2:47 PM 61.0 °F 34.0 °F 36% 29.81 in 10.0 mi Variable 5.8 mph - N/A   Partly Cloudy
3:47 PM 59.0 °F 27.0 °F 29% 29.82 in 10.0 mi NNW 10.4 mph 23.0 mph N/A   Scattered Clouds
4:47 PM 55.9 °F 24.1 °F 29% 29.84 in 10.0 mi NNW 8.1 mph - N/A   Clear
5:47 PM 54.0 °F 21.9 °F 29% 29.86 in 10.0 mi NNW 9.2 mph 21.9 mph N/A   Clear